Dewpoint
-11 -10 -5 -3 -2 1 3 7 5 8 6 6 6 6 7 6 9 10 9 9 7 1 4 5 4 3 5 8 10 12 12 12 12 12 11 11 12 11 11 12 11 11 10 9 9 10 7 8 7
-11 -6 -3 -4 -0 2 4 3 7 6 5 5 5 5 5 5 7 10 9 6 1 -4 -5 -6 -6 -7 -7 -4 3 9 10 11 10 10 11 11 11 11 11 12 12 12 12 11 10 10 10 10 7
-9 -5 -5 -2 -0 3 5 3 4 3 5 2 5 4 4 4 6 9 7 3 -3 -5 -7 -9 -11 -11 -11 -10 -10 -10 -7 -5 -4 -1 5 10 11 11 10 10 10 11 11 12 12 11 11 10 10
-8 -4 -4 -1 0 -1 2 2 2 -2 2 3 4 4 4 4 4 6 3 -1 -4 -7 -9 -10 -11 -11 -11 -11 -12 -12 -12 -11 -12 -12 -12 -11 -9 -4 4 8 10 10 9 10 11 11 12 12 11
-6 -5 -3 -1 -2 -3 -4 -1 1 -3 -2 3 4 4 3 4 4 3 1 -3 -5 -8 -8 -9 -9 -9 -9 -9 -10 -10 -10 -10 -10 -10 -10 -10 -10 -11 -11 -11 -11 -0 8 9 9 9 10 11 12
-6 -5 -2 -1 -2 -4 -5 -6 -4 -4 2 3 3 4 3 3 3 2 -1 -3 -6 -7 -8 -8 -8 -8 -8 -8 -8 -8 -8 -8 -8 -8 -8 -8 -9 -9 -9 -10 -10 -10 -11 -10 -2 7 9 8 8
-5 -3 -2 -2 -2 -3 -5 -7 -6 -5 -5 -3 3 4 3 3 2 1 -0 -2 -5 -6 -7 -7 -7 -6 -6 -5 -5 -5 -5 -5 -5 -6 -6 -7 -8 -8 -8 -8 -8 -8 -9 -10 -10 -11 -9 4 9
-6 -4 -3 -3 -2 -3 -6 -7 -6 -7 -5 2 3 4 3 3 2 1 1 -1 -4 -5 -5 -5 -5 -4 -3 -3 -3 -2 -2 -2 -3 -3 -3 -4 -4 -5 -6 -7 -8 -8 -8 -8 -8 -8 -9 -10 -10
-3 -3 -3 -4 -3 -4 -6 -7 -7 -8 -4 -2 1 2 2 3 2 2 2 -0 -2 -3 -3 -3 -3 -2 -2 -2 -2 -2 -2 -2 -2 -2 -3 -3 -3 -4 -5 -6 -7 -7 -8 -8 -8 -7 -7 -8 -9
-4 -4 -4 -5 -5 -5 -7 -8 -7 -4 1 3 3 3 3 3 2 3 2 1 0 -1 -2 -2 -1 -1 -1 -1 -1 -1 -1 -1 -1 -1 -1 -2 -2 -3 -5 -6 -7 -7 -8 -8 -8 -8 -8 -7 -7
-5 -4 -5 -3 -5 -7 -7 -6 -6 -5 -3 1 2 3 3 3 3 3 2 2 2 0 -0 -1 -1 -1 -1 -1 -1 -1 -1 -1 -2 -3 -4 -4 -4 -4 -3 -3 -4 -6 -7 -7 -8 -8 -9 -9 -8
-4 -4 -3 -4 -4 -6 -6 -6 -5 -5 -6 -5 -1 0 3 3 3 3 2 2 2 1 1 -0 -0 -0 -0 -0 -1 -1 -2 -3 -4 -5 -5 -6 -6 -6 -5 -5 -4 -3 -3 -4 -6 -7 -8 -10 -10
-4 -5 -5 -5 -5 -6 -6 -6 -6 -5 -5 -5 1 2 2 3 3 3 3 3 2 2 1 0 -0 -0 -0 -1 -1 -3 -3 -4 -5 -6 -6 -6 -7 -7 -7 -7 -6 -5 -5 -6 -5 -5 -5 -5 -6
-5 -5 -4 -5 -5 -5 -5 -5 -5 -6 -5 -3 2 2 3 3 3 3 3 3 3 3 1 0 -0 -0 -0 -1 -2 -3 -5 -6 -7 -8 -8 -8 -8 -9 -9 -9 -9 -9 -8 -7 -7 -8 -9 -9 -7
-4 -4 -6 -5 -5 -7 -5 -5 -5 -6 -4 -1 3 3 3 3 3 2 3 3 3 2 1 0 -0 -0 -1 -2 -3 -4 -5 -6 -8 -9 -10 -11 -11 -12 -12 -13 -13 -13 -12 -11 -10 -9 -10 -10 -11
-4 -4 -5 -7 -6 -6 -7 -5 -6 -5 -3 1 2 3 3 3 3 3 3 3 3 1 1 0 -0 0 -1 -2 -3 -4 -5 -6 -8 -9 -10 -11 -12 -13 -14 -15 -16 -16 -16 -16 -14 -12 -11 -11 -11
-5 -3 -3 -4 -6 -6 -6 -5 -6 -4 -1 2 3 3 3 3 3 3 3 3 2 0 0 0 0 -0 -1 -2 -3 -3 -4 -6 -8 -9 -10 -11 -13 -15 -16 -17 -17 -17 -17 -17 -17 -16 -14 -13 -13
-4 -5 -4 -3 -5 -5 -4 -4 -5 -4 -0 2 3 3 3 3 3 3 4 3 0 0 1 0 -1 -1 -1 -2 -3 -4 -5 -7 -8 -10 -11 -14 -16 -16 -17 -18 -18 -18 -17 -17 -17 -17 -17 -15 -14
-4 -4 -4 -5 -5 -4 -3 -3 -4 -4 -2 -1 3 4 4 4 3 4 3 1 1 1 0 -0 -1 -2 -2 -2 -3 -5 -7 -8 -10 -11 -14 -15 -16 -18 -19 -18 -18 -16 -15 -15 -14 -14 -13 -14 -13
-4 -4 -4 -6 -5 -3 -3 -3 -5 -4 -2 -2 -1 3 4 4 4 3 3 2 1 1 -0 -1 -2 -1 -2 -2 -5 -7 -9 -10 -11 -14 -15 -16 -18 -20 -20 -18 -16 -15 -15 -14 -13 -12 -11 -11 -10
-5 -4 -5 -5 -4 -4 -3 -2 -3 -1 -0 -1 -2 -1 3 4 3 3 2 2 1 1 0 -1 -1 -1 -2 -4 -7 -9 -10 -11 -13 -14 -15 -18 -20 -21 -21 -19 -17 -15 -14 -13 -11 -10 -9 -8 -10
-3 -5 -4 -3 -2 -1 -4 1 -4 -2 1 1 -0 0 2 3 3 3 2 2 1 1 1 -1 -1 -1 -4 -6 -9 -10 -11 -13 -14 -15 -17 -20 -21 -22 -20 -18 -16 -15 -14 -12 -10 -9 -9 -9 -9
-3 -4 -3 -2 -1 -0 -1 -1 -2 0 -0 1 1 1 0 2 3 3 3 3 1 1 1 -0 -1 -3 -5 -8 -10 -10 -11 -13 -14 -16 -19 -20 -21 -21 -20 -17 -16 -15 -14 -12 -11 -10 -9 -9 -8
-3 -1 -1 -0 -0 3 -1 -1 -2 -3 -2 -2 -0 0 1 1 3 3 3 2 2 2 1 -0 -1 -4 -7 -9 -10 -10 -11 -13 -16 -18 -19 -19 -21 -21 -19 -17 -15 -15 -14 -13 -12 -11 -10 -9 -9
-3 -2 3 2 3 4 -2 -0 -2 -5 -2 -3 -2 -0 0 1 2 3 2 1 2 1 0 -1 -3 -6 -8 -10 -10 -10 -12 -15 -17 -18 -18 -20 -21 -20 -19 -16 -15 -15 -14 -14 -12 -9 -9 -8 -8
-2 -2 3 2 2 1 -2 2 -1 -6 -4 -2 -1 -1 -0 1 2 2 1 1 1 1 -0 -2 -5 -7 -10 -10 -10 -11 -14 -16 -17 -18 -19 -20 -20 -19 -18 -17 -15 -15 -15 -14 -12 -10 -9 -8 -8
-2 -0 -3 -0 -1 1 -0 -2 -4 -2 -2 -2 0 0 -0 0 1 1 1 2 1 -0 -2 -4 -7 -9 -10 -10 -11 -13 -16 -17 -17 -19 -20 -19 -19 -18 -17 -17 -16 -16 -15 -14 -13 -11 -9 -9 -8
-3 -4 -0 -0 2 3 1 -0 -1 -2 -1 -2 -2 0 0 1 1 2 2 1 -0 -2 -5 -7 -9 -10 -10 -11 -13 -15 -16 -17 -20 -20 -19 -19 -19 -18 -18 -17 -16 -16 -15 -14 -13 -12 -10 -9 -9
-1 -2 -2 -1 0 2 2 0 -3 -3 -3 -2 -2 -2 -0 1 1 2 1 -1 -2 -5 -7 -9 -10 -10 -10 -12 -15 -16 -18 -20 -19 -19 -20 -20 -20 -19 -18 -17 -17 -16 -15 -14 -13 -12 -10 -9 -9
-3 -2 -2 2 1 -0 -1 0 -4 -4 -5 -3 -3 -4 -3 -1 -0 0 -1 -3 -5 -8 -9 -10 -10 -10 -12 -15 -16 -19 -20 -19 -20 -20 -20 -20 -19 -18 -17 -17 -16 -16 -15 -14 -13 -12 -11 -10 -9
Wind_Speed
2 4 5 2 4 5 2 1 2 1 3 7 9 6 9 7 2 3 5 2 6 9 9 10 11 12 11 11 9 9 9 10 10 9 10 10 11 12 12 12 13 12 13 13 13 14 14 14 14
4 4 1 3 5 4 3 2 2 1 11 14 10 7 6 3 5 9 4 3 6 8 10 11 12 12 12 11 10 10 10 11 13 14 11 10 11 11 12 12 12 13 15 16 17 17 16 16 15
3 3 2 4 3 4 4 3 3 3 14 3 5 8 4 3 6 7 3 3 5 8 9 10 10 11 11 11 12 12 13 14 15 15 14 13 14 14 14 15 15 15 15 15 16 18 19 19 18
1 1 6 5 3 2 3 4 4 7 4 2 12 7 6 4 4 5 3 3 4 5 5 6 8 10 12 12 13 15 15 15 15 15 16 16 15 15 16 18 18 17 17 17 18 17 18 20 20
2 4 5 4 1 1 1 3 10 3 5 5 3 5 5 8 9 6 2 1 3 3 5 7 8 9 10 12 13 14 15 16 16 17 17 18 18 18 18 19 18 18 19 21 21 21 21 20 19
3 3 4 3 2 1 2 4 6 4 5 6 7 8 6 11 9 7 4 2 1 3 4 5 7 9 11 12 13 15 16 17 17 18 19 19 19 19 19 19 19 19 20 21 22 23 26 26 24
6 4 4 5 5 1 4 5 6 7 6 3 11 5 9 13 11 7 5 2 1 3 4 6 7 8 9 11 12 13 14 15 16 17 18 19 20 21 21 21 21 21 22 22 22 23 25 26 29
4 6 4 3 6 4 6 5 8 5 3 11 6 6 7 21 15 11 7 3 2 3 4 5 7 8 9 10 11 12 14 15 16 16 17 18 19 20 21 22 23 23 24 24 23 23 24 25 27
3 5 3 6 7 3 8 4 4 5 10 7 8 6 6 24 19 14 8 5 3 3 4 5 5 7 9 10 13 14 15 16 17 18 19 20 21 21 22 22 23 24 25 26 26 26 26 26 26
4 4 8 6 5 5 9 5 10 5 6 3 7 10 15 24 20 15 10 5 3 3 4 5 7 8 10 11 12 14 16 18 20 21 22 23 24 24 25 24 25 25 26 26 26 26 27 27 27
2 4 5 4 6 8 10 7 8 10 4 11 17 22 26 24 20 15 10 6 2 3 5 5 6 8 9 11 13 15 17 19 21 23 24 25 26 26 27 27 28 28 29 30 30 30 29 28 28
4 2 3 6 7 7 8 10 5 11 4 8 15 19 26 24 21 16 11 6 2 3 4 4 5 7 9 11 13 16 18 20 21 23 24 25 26 27 28 29 30 31 32 33 33 33 32 31 30
3 4 3 5 6 5 8 5 5 10 8 10 19 23 24 22 19 16 11 5 1 2 2 2 3 6 9 11 13 16 18 20 21 23 25 27 28 29 30 31 32 33 33 33 33 34 34 34 32
4 5 5 4 5 5 5 3 3 10 12 12 23 23 23 22 20 18 12 7 4 3 2 1 4 7 9 11 13 16 18 20 23 25 26 27 28 30 31 32 33 35 35 35 35 34 34 35 34
9 4 1 3 3 3 4 4 8 9 15 18 24 23 24 23 21 17 11 8 5 4 3 2 5 7 9 11 14 17 19 21 23 23 24 26 29 32 34 35 35 37 38 38 37 37 35 35 33
4 4 2 2 5 1 4 8 5 13 19 20 24 24 25 25 22 18 13 9 7 6 5 4 6 9 9 12 15 18 20 23 24 25 28 30 32 34 35 35 35 35 36 37 38 38 37 36 35
4 3 4 3 8 3 5 7 2 15 19 22 25 27 27 26 23 20 15 11 8 7 5 6 8 10 11 14 17 20 23 26 27 29 32 34 35 35 34 34 33 32 33 33 34 35 34 36 35
6 4 4 4 4 4 4 13 4 16 20 25 28 28 29 28 26 21 17 12 10 8 7 7 9 11 13 15 18 21 24 27 29 31 34 36 36 35 34 33 33 32 32 32 32 33 34 33 33
4 4 4 3 2 3 8 10 11 20 20 22 28 31 32 31 24 20 17 14 12 10 8 8 10 12 13 16 22 26 29 30 30 33 34 34 33 33 33 32 32 31 30 29 27 29 30 30 28
3 4 5 2 1 1 5 15 12 12 17 31 35 36 36 31 28 24 21 17 14 11 9 9 12 13 15 18 22 26 29 31 35 37 36 35 35 34 34 31 30 30 30 29 27 26 28 28 25
4 5 4 4 2 2 6 8 5 2 6 22 30 34 36 36 33 28 24 20 15 14 10 11 13 14 15 19 23 26 30 35 38 38 37 36 35 34 33 31 30 30 29 29 26 23 23 28 27
4 3 4 3 3 4 2 6 6 3 6 7 23 30 35 36 33 28 24 20 18 14 12 13 14 14 16 20 24 29 34 37 39 38 38 37 35 34 32 31 30 28 27 26 25 23 24 24 27
4 3 3 2 3 3 2 1 7 1 6 10 18 30 33 35 34 29 25 19 17 17 15 14 15 14 17 21 25 31 35 38 39 39 39 37 37 35 32 31 30 29 27 26 26 26 25 24 24
6 5 6 4 3 1 3 4 6 5 6 3 7 30 31 32 33 27 21 19 21 19 16 15 15 15 19 22 27 32 36 39 39 38 38 39 39 37 33 31 29 28 28 28 27 26 25 24 23
3 4 2 4 2 5 2 2 11 4 6 4 4 18 30 28 28 25 23 23 21 18 16 16 15 17 20 24 29 33 36 37 38 37 38 39 40 37 35 32 30 30 29 28 26 24 24 23 22
6 6 5 6 3 4 3 7 6 3 2 4 6 8 18 26 25 23 22 21 18 17 17 15 16 19 22 26 30 34 36 36 35 36 38 37 37 36 34 33 32 31 30 28 26 25 25 23 22
5 5 3 6 3 3 4 7 9 3 3 2 2 5 16 23 22 21 20 19 18 18 16 16 17 20 24 28 32 35 35 34 35 36 35 34 33 34 33 33 33 31 30 29 28 27 24 23 23
3 5 3 2 3 5 5 6 7 4 7 6 5 9 14 18 19 18 17 18 18 16 15 15 17 22 26 31 34 34 33 34 35 34 33 32 32 32 32 33 32 31 31 30 28 27 25 23 22
4 3 2 2 4 5 1 6 6 5 6 10 11 15 15 16 16 16 17 17 16 14 13 15 19 24 29 32 33 33 33 33 33 32 31 32 32 32 32 33 33 32 31 30 30 27 22 22 25
3 6 7 4 5 1 3 7 1 2 4 9 14 15 13 12 14 15 16 15 14 12 14 17 21 26 30 32 32 33 32 31 32 32 32 32 33 33 33 33 33 32 31 30 30 28 23 24 25
Wind_Direction
323 352 347 21 60 66 65 73 271 151 58 63 92 112 110 54 58 153 112 17 357 353 357 355 1 358 353 340 333 349 10 13 4 353 340 338 349 347 336 319 308 304 301 298 298 304 300 296 298
27 350 1 95 82 64 284 275 130 214 142 120 89 92 62 76 72 137 144 18 5 354 352 351 350 346 344 354 351 330 327 330 326 327 333 341 338 330 335 338 328 311 306 300 297 293 293 295 294
51 12 77 90 99 139 175 204 183 85 145 58 104 79 95 93 106 152 131 32 4 339 342 339 341 343 344 346 345 346 353 352 351 348 343 332 314 310 312 309 310 316 309 308 301 294 290 287 288
67 102 69 77 102 204 185 168 155 122 150 143 128 72 83 115 135 147 125 22 342 322 333 356 4 4 10 9 6 5 4 2 359 353 348 340 339 335 325 318 310 301 297 298 296 296 294 290 285
34 69 61 80 109 200 195 179 167 150 142 134 110 131 92 140 144 140 146 244 303 348 8 12 19 20 22 20 18 16 13 8 6 4 3 358 354 346 337 330 324 315 301 293 289 289 291 291 290
66 76 70 155 215 273 271 195 174 128 104 122 109 114 146 154 152 164 173 244 358 12 21 28 33 30 25 19 17 14 11 8 5 2 359 356 353 350 346 341 334 326 316 306 301 292 285 281 279
106 76 147 139 179 226 217 152 167 141 127 147 146 108 156 171 177 177 186 168 59 45 45 42 37 31 22 17 16 15 9 4 0 356 351 347 346 343 338 335 332 328 323 319 313 303 297 290 282
82 87 104 197 188 231 180 140 136 134 136 143 174 174 185 184 182 182 179 164 108 78 51 44 35 26 20 14 11 10 4 359 353 348 344 339 336 333 330 327 325 324 319 316 314 311 304 296 291
112 70 167 196 154 208 165 136 155 139 144 181 192 199 218 177 178 181 181 159 119 75 49 40 25 21 18 10 8 3 358 355 350 346 342 337 334 331 327 325 322 319 316 315 312 309 306 303 298
82 116 210 179 184 180 167 158 154 145 146 164 182 187 167 174 176 185 177 169 138 67 41 28 21 12 8 4 3 358 353 347 342 338 334 332 329 327 325 321 318 316 314 313 310 309 306 302 297
103 170 172 200 196 169 152 150 176 160 226 199 182 162 167 175 179 189 186 182 125 52 33 22 13 11 5 0 357 347 345 342 339 335 331 328 324 320 317 315 314 313 311 309 308 306 305 303 299
89 135 176 167 171 161 166 156 182 186 218 202 190 177 174 182 185 191 195 184 105 45 8 8 11 4 355 353 346 347 343 340 337 334 330 327 325 323 322 323 320 316 311 308 307 305 303 302 299
101 175 155 160 166 168 163 190 211 217 193 186 181 179 184 187 187 193 195 186 201 319 339 357 1 346 346 347 347 345 342 339 334 329 326 322 320 319 318 315 314 314 314 314 310 305 301 298 297
132 128 127 166 163 175 174 202 194 209 190 181 183 188 193 194 198 196 195 203 219 255 263 298 331 335 341 342 343 343 340 336 333 327 325 325 323 321 319 316 314 313 310 309 309 308 307 301 296
125 94 21 208 185 184 172 249 230 206 191 182 188 194 198 201 202 205 205 208 226 246 239 275 312 324 333 339 339 336 334 335 333 330 327 324 320 318 316 315 313 310 308 308 306 303 304 300 300
74 63 142 233 162 186 138 265 235 195 190 189 194 197 196 199 202 203 208 217 235 232 235 274 308 315 323 328 328 330 332 335 333 328 325 323 322 320 317 314 311 308 305 302 300 300 302 300 300
5 215 207 292 203 138 173 267 253 191 194 193 196 196 196 197 201 207 209 220 232 225 245 283 301 303 308 319 326 330 332 333 331 328 327 325 323 322 321 320 317 313 308 305 305 302 302 302 300
200 218 227 229 227 178 220 256 236 203 201 204 201 200 201 203 209 208 210 218 216 227 253 279 292 295 304 317 326 329 330 330 329 327 326 325 325 325 323 321 317 313 309 306 303 300 300 302 304
143 187 215 223 177 199 245 263 248 218 211 209 209 208 207 209 209 210 211 214 218 232 252 272 284 295 306 317 328 331 332 331 329 328 329 329 328 328 326 323 320 317 313 311 308 303 303 302 307
161 171 239 283 134 179 298 275 262 202 215 208 209 211 213 210 209 211 211 216 225 235 252 271 282 295 308 323 330 331 331 331 332 332 333 331 329 327 326 325 322 318 315 313 310 309 308 306 310
202 182 193 208 329 248 331 277 272 240 204 215 220 222 218 213 211 212 214 221 227 236 255 273 283 295 311 322 326 326 327 331 333 332 330 329 328 328 327 325 322 319 316 314 314 311 308 309 306
217 169 120 110 66 240 46 284 295 225 240 220 214 216 218 215 216 219 219 224 232 238 252 269 281 293 310 320 324 329 333 334 332 329 327 327 327 328 327 324 322 321 317 312 309 308 306 306 304
208 102 97 91 96 12 232 195 270 14 259 234 222 219 219 218 216 217 222 231 234 239 252 265 280 290 307 316 323 329 331 330 326 324 325 326 326 329 329 326 323 321 318 313 307 304 302 300 299
139 76 52 55 86 320 215 162 279 207 217 248 211 221 220 217 216 220 225 229 230 238 247 261 273 289 302 314 321 327 328 326 324 325 325 326 326 326 326 324 322 320 319 317 313 307 302 298 295
92 89 319 338 12 229 149 128 248 242 225 223 217 221 218 214 211 216 221 224 228 235 244 256 270 287 302 313 321 326 325 323 321 323 323 324 324 324 324 324 322 322 319 316 313 307 302 298 296
179 167 169 219 207 264 331 236 251 194 215 252 269 247 214 208 209 216 223 226 229 233 242 255 274 291 305 314 323 323 321 319 320 322 322 321 320 321 321 321 319 319 317 316 311 305 300 298 294
189 191 161 106 61 47 231 290 291 174 222 236 199 178 187 196 204 214 219 224 226 230 243 261 281 298 312 320 320 318 318 320 319 318 318 319 320 320 319 318 318 318 317 316 314 308 301 300 295
167 158 85 7 187 247 281 278 246 248 222 213 209 193 180 189 202 212 215 215 218 230 248 271 293 307 316 317 317 318 319 318 317 319 321 321 320 319 318 318 318 318 317 315 313 308 302 298 292
145 190 93 134 162 182 251 258 215 231 208 197 205 197 189 193 203 206 205 207 218 234 257 283 301 311 315 315 316 317 320 320 321 322 322 321 319 319 319 317 316 316 315 313 311 307 300 296 289
174 185 163 148 210 187 141 272 197 276 287 197 200 195 192 196 200 201 201 207 220 243 272 294 307 315 316 315 318 322 324 324 324 324 323 322 321 320 319 317 315 314 313 311 308 305 296 284 287
Height
1519 1517 1516 1516 1530 1539 1554 1549 1546 1544 1546 1544 1543 1544 1548 1552 1555 1562 1559 1560 1560 1559 1557 1555 1553 1553 1553 1552 1549 1548 1546 1545 1544 1543 1542 1542 1541 1539 1538 1538 1536 1535 1534 1533 1532 1531 1530 1529 1529
1516 1517 1518 1519 1541 1554 1557 1545 1544 1543 1544 1545 1545 1548 1551 1557 1556 1557 1560 1559 1558 1558 1556 1554 1553 1552 1552 1550 1548 1546 1545 1544 1543 1542 1541 1541 1539 1538 1537 1536 1534 1534 1533 1532 1531 1530 1528 1527 1527
1517 1518 1520 1530 1551 1557 1554 1544 1543 1542 1543 1545 1547 1549 1553 1557 1557 1557 1558 1558 1558 1558 1556 1554 1553 1553 1551 1549 1548 1546 1545 1544 1543 1541 1540 1539 1538 1536 1535 1534 1533 1532 1531 1530 1529 1527 1526 1525 1525
1519 1520 1523 1539 1546 1543 1542 1541 1541 1543 1546 1546 1547 1551 1553 1555 1557 1557 1558 1557 1558 1558 1556 1555 1554 1553 1551 1550 1548 1546 1544 1543 1542 1540 1539 1538 1536 1534 1533 1532 1531 1530 1528 1527 1526 1524 1524 1523 1522
1517 1517 1535 1545 1543 1540 1540 1540 1541 1543 1544 1545 1544 1551 1554 1556 1557 1557 1558 1558 1558 1557 1556 1555 1555 1554 1552 1550 1548 1547 1545 1544 1542 1540 1538 1538 1535 1534 1532 1531 1529 1527 1526 1524 1523 1521 1520 1519 1518
1516 1519 1541 1548 1543 1539 1539 1539 1540 1541 1542 1544 1545 1551 1555 1556 1557 1557 1557 1558 1557 1557 1557 1556 1555 1554 1552 1550 1548 1547 1546 1544 1542 1540 1538 1537 1535 1533 1532 1529 1527 1525 1523 1521 1519 1517 1516 1514 1513
1517 1527 1541 1545 1546 1542 1538 1538 1539 1540 1543 1545 1546 1550 1554 1555 1555 1556 1556 1557 1557 1557 1556 1556 1554 1553 1552 1551 1549 1547 1546 1544 1542 1539 1538 1536 1534 1531 1530 1527 1525 1523 1521 1519 1516 1514 1512 1509 1508
1519 1527 1543 1545 1548 1541 1536 1537 1539 1540 1543 1544 1545 1548 1551 1550 1553 1554 1556 1557 1557 1556 1556 1555 1554 1553 1551 1550 1548 1547 1545 1543 1541 1540 1538 1537 1534 1531 1529 1526 1523 1520 1518 1516 1513 1510 1508 1505 1503
1521 1535 1545 1540 1543 1535 1535 1537 1539 1539 1540 1542 1542 1543 1544 1547 1551 1554 1556 1556 1556 1555 1555 1554 1553 1552 1551 1549 1547 1546 1544 1543 1541 1538 1536 1534 1531 1529 1527 1524 1521 1518 1515 1512 1509 1507 1504 1501 1499
1522 1534 1532 1529 1530 1531 1532 1534 1536 1539 1540 1541 1541 1542 1543 1546 1549 1552 1554 1555 1555 1554 1553 1553 1552 1551 1550 1549 1547 1545 1543 1541 1539 1537 1534 1532 1529 1526 1524 1521 1518 1515 1512 1509 1506 1503 1500 1498 1495
1524 1529 1527 1527 1528 1529 1531 1534 1535 1537 1540 1537 1537 1539 1543 1545 1548 1551 1553 1554 1554 1553 1552 1552 1551 1550 1549 1548 1546 1544 1542 1541 1538 1535 1532 1529 1526 1523 1520 1517 1514 1511 1508 1504 1501 1498 1496 1493 1490
1526 1526 1527 1527 1528 1529 1531 1532 1534 1534 1534 1534 1536 1538 1540 1543 1546 1549 1551 1552 1552 1551 1551 1551 1550 1549 1548 1547 1545 1543 1541 1539 1536 1533 1529 1526 1523 1520 1517 1513 1510 1506 1503 1500 1496 1493 1490 1488 1485
1525 1527 1527 1528 1529 1530 1530 1531 1532 1531 1532 1533 1535 1537 1539 1542 1545 1547 1549 1549 1549 1550 1550 1549 1549 1548 1547 1546 1544 1542 1540 1537 1534 1531 1528 1524 1521 1517 1514 1511 1507 1504 1500 1496 1491 1487 1484 1482 1479
1525 1527 1528 1528 1529 1530 1531 1532 1531 1528 1530 1531 1533 1535 1538 1540 1543 1544 1546 1547 1548 1548 1548 1547 1547 1546 1545 1544 1542 1540 1538 1535 1533 1529 1525 1522 1518 1515 1511 1507 1503 1499 1495 1491 1486 1482 1479 1476 1473
1526 1529 1529 1528 1529 1529 1530 1531 1527 1525 1527 1529 1531 1533 1535 1538 1540 1542 1543 1545 1545 1545 1545 1545 1545 1544 1543 1542 1540 1538 1536 1533 1530 1526 1523 1520 1516 1512 1508 1503 1499 1495 1491 1485 1481 1478 1474 1470 1466
1529 1531 1534 1526 1526 1528 1530 1530 1520 1522 1524 1526 1528 1530 1532 1534 1537 1539 1541 1542 1543 1543 1543 1543 1543 1542 1542 1541 1539 1536 1534 1530 1527 1524 1520 1516 1512 1507 1503 1498 1494 1490 1485 1481 1477 1473 1467 1463 1459
1534 1536 1534 1527 1524 1526 1529 1526 1519 1520 1522 1524 1525 1526 1529 1532 1534 1536 1538 1539 1540 1541 1541 1541 1540 1540 1539 1538 1536 1534 1531 1527 1524 1520 1516 1512 1507 1502 1497 1492 1488 1483 1479 1476 1471 1467 1463 1457 1453
1532 1534 1530 1529 1525 1526 1527 1522 1518 1519 1520 1520 1522 1524 1526 1527 1529 1532 1535 1536 1537 1538 1538 1537 1537 1537 1536 1535 1533 1531 1528 1525 1521 1516 1512 1507 1502 1497 1492 1488 1483 1479 1475 1472 1468 1462 1458 1454 1449
1523 1526 1525 1523 1523 1525 1524 1519 1512 1513 1515 1517 1519 1520 1521 1523 1528 1530 1532 1533 1534 1534 1534 1534 1535 1534 1533 1531 1528 1526 1523 1520 1517 1512 1507 1502 1496 1492 1487 1482 1478 1473 1469 1465 1462 1458 1453 1450 1445
1520 1523 1525 1523 1523 1525 1523 1515 1506 1504 1503 1505 1508 1511 1515 1519 1523 1525 1527 1529 1530 1531 1532 1531 1532 1531 1529 1527 1524 1521 1518 1514 1510 1506 1502 1498 1493 1488 1482 1478 1473 1469 1464 1460 1456 1452 1447 1444 1442
1521 1523 1523 1523 1525 1526 1527 1514 1501 1498 1498 1499 1502 1505 1508 1511 1515 1519 1522 1525 1527 1528 1529 1529 1529 1528 1526 1523 1521 1518 1514 1510 1505 1501 1497 1493 1489 1484 1479 1474 1468 1464 1460 1455 1451 1447 1444 1439 1438
1521 1518 1520 1523 1527 1531 1527 1526 1499 1498 1498 1497 1497 1498 1501 1505 1511 1515 1518 1521 1523 1525 1525 1526 1525 1524 1522 1519 1516 1513 1508 1502 1498 1494 1490 1486 1481 1477 1474 1468 1463 1460 1455 1451 1448 1443 1440 1437 1433
1515 1519 1523 1526 1532 1534 1529 1534 1498 1499 1495 1491 1489 1491 1494 1499 1505 1510 1514 1518 1520 1521 1522 1522 1522 1521 1518 1516 1512 1508 1503 1500 1494 1490 1485 1480 1476 1472 1468 1464 1459 1454 1450 1445 1443 1439 1436 1433 1430
1520 1523 1529 1536 1539 1544 1523 1527 1499 1493 1484 1480 1481 1484 1489 1494 1501 1507 1512 1515 1516 1517 1519 1519 1518 1517 1514 1512 1508 1504 1499 1494 1489 1484 1478 1473 1468 1465 1461 1457 1453 1449 1445 1440 1437 1433 1431 1428 1425
1519 1525 1536 1538 1547 1524 1524 1533 1490 1477 1478 1477 1477 1479 1484 1490 1497 1503 1506 1509 1511 1513 1515 1515 1514 1513 1510 1507 1504 1500 1495 1491 1485 1479 1473 1468 1462 1458 1454 1451 1447 1443 1439 1434 1431 1428 1426 1423 1420
1518 1518 1530 1526 1536 1528 1528 1516 1477 1475 1475 1477 1477 1478 1481 1488 1494 1499 1503 1506 1508 1509 1510 1511 1510 1508 1505 1502 1499 1495 1492 1487 1481 1475 1470 1465 1460 1455 1451 1446 1442 1437 1433 1428 1425 1422 1420 1417 1415
1515 1518 1516 1530 1542 1548 1513 1499 1473 1474 1475 1477 1477 1478 1480 1486 1492 1496 1500 1502 1504 1505 1506 1506 1505 1504 1501 1498 1493 1490 1485 1480 1473 1469 1464 1458 1453 1448 1444 1441 1436 1431 1427 1422 1419 1415 1413 1411 1409
1505 1508 1520 1527 1522 1519 1510 1509 1479 1470 1475 1476 1478 1479 1481 1485 1490 1493 1496 1498 1500 1501 1502 1502 1501 1499 1496 1492 1488 1483 1479 1474 1468 1462 1458 1452 1447 1442 1438 1434 1429 1424 1420 1416 1413 1409 1407 1404 1403
1507 1508 1511 1513 1517 1520 1529 1491 1471 1468 1468 1471 1473 1476 1480 1484 1487 1490 1492 1494 1496 1498 1498 1498 1497 1494 1491 1487 1483 1478 1474 1468 1463 1457 1452 1447 1441 1436 1431 1427 1422 1418 1414 1410 1406 1403 1400 1399 1396
1492 1494 1498 1507 1508 1531 1535 1498 1465 1467 1468 1468 1471 1475 1478 1482 1484 1486 1489 1491 1493 1494 1495 1494 1492 1489 1486 1482 1477 1473 1467 1462 1457 1452 1446 1441 1435 1430 1426 1421 1416 1411 1407 1404 1399 1396 1394 1392 1390